Time,TemperatureF,DewpointF,PressureIn,WindDirection,WindDirectionDegrees,WindSpeedMPH,WindSpeedGustMPH,Humidity,HourlyPrecipIn,Conditions,Clouds,dailyrainin,SoftwareType,DateUTC
2013-07-31 00:02:00,82.4,57.0,30.19,SW,217,1.0,6.0,42,0.00,,,0.00,meteohub,2013-07-31 06:02:00,
2013-07-31 00:07:00,82.6,56.5,30.19,SSW,211,4.0,6.0,41,0.00,,,0.00,meteohub,2013-07-31 06:07:00,
2013-07-31 00:12:00,82.6,56.5,30.19,SSW,209,4.0,6.0,41,0.00,,,0.00,meteohub,2013-07-31 06:12:00,
2013-07-31 00:17:00,82.8,56.7,30.19,SSW,205,0.0,5.0,41,0.00,,,0.00,meteohub,2013-07-31 06:17:00,
2013-07-31 00:22:00,82.6,56.5,30.19,SSW,205,1.0,5.0,41,0.00,,,0.00,meteohub,2013-07-31 06:22:00,
2013-07-31 00:27:00,82.2,56.1,30.19,SSW,205,2.0,5.0,41,0.00,,,0.00,meteohub,2013-07-31 06:27:00,
2013-07-31 00:32:00,82.0,57.9,30.19,SSW,205,1.0,3.0,44,0.00,,,0.00,meteohub,2013-07-31 06:32:00,
2013-07-31 00:37:00,81.7,58.8,30.19,SSW,205,0.0,3.0,46,0.00,,,0.00,meteohub,2013-07-31 06:37:00,
2013-07-31 00:42:00,81.1,59.0,30.19,SSW,205,0.0,3.0,47,0.00,,,0.00,meteohub,2013-07-31 06:42:00,
2013-07-31 00:47:00,81.0,58.8,30.19,SSW,205,0.0,2.0,47,0.00,,,0.00,meteohub,2013-07-31 06:47:00,
2013-07-31 00:52:00,81.0,58.8,30.19,SSW,205,0.0,1.0,47,0.00,,,0.00,meteohub,2013-07-31 06:52:00,
2013-07-31 00:57:00,81.0,58.8,30.19,SSW,205,0.0,1.0,47,0.00,,,0.00,meteohub,2013-07-31 06:57:00,
2013-07-31 01:02:00,80.8,58.6,30.19,SSW,205,1.0,1.0,47,0.00,,,0.00,meteohub,2013-07-31 07:02:00,
2013-07-31 01:08:00,80.2,59.4,30.19,SSW,205,1.0,2.0,49,0.00,,,0.00,meteohub,2013-07-31 07:08:00,
2013-07-31 01:14:00,79.7,59.4,30.19,SSW,205,0.0,2.0,50,0.00,,,0.00,meteohub,2013-07-31 07:14:00,
2013-07-31 01:20:00,79.3,59.7,30.19,SSW,205,0.0,2.0,51,0.00,,,0.00,meteohub,2013-07-31 07:20:00,
2013-07-31 01:26:00,79.3,59.7,30.19,SSW,205,0.0,2.0,51,0.00,,,0.00,meteohub,2013-07-31 07:26:00,
2013-07-31 01:32:00,79.2,60.1,30.19,SSW,205,1.0,0.0,52,0.00,,,0.00,meteohub,2013-07-31 07:32:00,
2013-07-31 01:37:00,79.0,61.0,30.19,WNW,284,2.0,3.0,54,0.00,,,0.00,meteohub,2013-07-31 07:37:00,
2013-07-31 01:42:00,78.6,61.2,30.19,NW,316,2.0,5.0,55,0.00,,,0.00,meteohub,2013-07-31 07:42:00,
2013-07-31 01:47:00,78.4,61.5,30.19,NW,317,1.0,5.0,56,0.00,,,0.00,meteohub,2013-07-31 07:47:00,
2013-07-31 01:52:00,78.3,61.3,30.19,NW,316,1.0,5.0,56,0.00,,,0.00,meteohub,2013-07-31 07:52:00,
2013-07-31 01:57:00,78.3,61.3,30.19,NW,317,1.0,4.0,56,0.00,,,0.00,meteohub,2013-07-31 07:57:00,
2013-07-31 02:03:00,78.3,61.7,30.19,NW,316,1.0,4.0,57,0.00,,,0.00,meteohub,2013-07-31 08:03:00,
2013-07-31 02:08:00,78.1,61.5,30.19,NW,317,0.0,4.0,57,0.00,,,0.00,meteohub,2013-07-31 08:08:00,
2013-07-31 02:14:00,78.1,61.5,30.19,NW,317,0.0,4.0,57,0.00,,,0.00,meteohub,2013-07-31 08:14:00,
2013-07-31 02:20:00,77.7,61.3,30.19,NW,317,2.0,4.0,57,0.00,,,0.00,meteohub,2013-07-31 08:20:00,
2013-07-31 02:26:00,77.5,61.2,30.18,NW,317,1.0,3.0,57,0.00,,,0.00,meteohub,2013-07-31 08:26:00,
2013-07-31 02:31:00,77.5,61.2,30.18,NW,317,2.0,3.0,57,0.00,,,0.00,meteohub,2013-07-31 08:31:00,
2013-07-31 02:37:00,77.5,61.2,30.18,NW,317,2.0,3.0,57,0.00,,,0.00,meteohub,2013-07-31 08:37:00,
2013-07-31 02:42:00,77.5,61.2,30.18,NW,317,2.0,2.0,57,0.00,,,0.00,meteohub,2013-07-31 08:42:00,
2013-07-31 02:47:00,77.4,61.0,30.18,NW,317,1.0,3.0,57,0.00,,,0.00,meteohub,2013-07-31 08:47:00,
2013-07-31 02:52:00,77.4,61.0,30.17,NW,317,2.0,3.0,57,0.00,,,0.00,meteohub,2013-07-31 08:52:00,
2013-07-31 02:57:00,77.0,61.2,30.18,NW,317,1.0,3.0,58,0.00,,,0.00,meteohub,2013-07-31 08:57:00,
2013-07-31 03:02:00,76.8,61.0,30.18,NW,317,0.0,3.0,58,0.00,,,0.00,meteohub,2013-07-31 09:02:00,
2013-07-31 03:07:00,76.8,61.0,30.18,NW,317,1.0,3.0,58,0.00,,,0.00,meteohub,2013-07-31 09:07:00,
2013-07-31 03:12:00,76.5,60.6,30.18,NW,317,0.0,3.0,58,0.00,,,0.00,meteohub,2013-07-31 09:12:00,
2013-07-31 03:17:00,76.5,60.6,30.18,NW,317,0.0,2.0,58,0.00,,,0.00,meteohub,2013-07-31 09:17:00,
2013-07-31 03:22:00,76.6,60.8,30.18,NW,317,0.0,2.0,58,0.00,,,0.00,meteohub,2013-07-31 09:22:00,
2013-07-31 03:27:00,76.6,60.8,30.17,NW,317,1.0,1.0,58,0.00,,,0.00,meteohub,2013-07-31 09:27:00,
2013-07-31 03:32:00,76.8,60.4,30.18,NW,316,2.0,3.0,57,0.00,,,0.00,meteohub,2013-07-31 09:32:00,
2013-07-31 03:37:00,76.8,59.9,30.18,NW,317,0.0,3.0,56,0.00,,,0.00,meteohub,2013-07-31 09:37:00,
2013-07-31 03:42:00,76.6,60.3,30.18,NW,317,0.0,3.0,57,0.00,,,0.00,meteohub,2013-07-31 09:42:00,
2013-07-31 03:47:00,76.5,60.1,30.18,NW,317,0.0,2.0,57,0.00,,,0.00,meteohub,2013-07-31 09:47:00,
2013-07-31 03:52:00,76.3,60.4,30.18,NW,317,0.0,1.0,58,0.00,,,0.00,meteohub,2013-07-31 09:52:00,
2013-07-31 03:57:00,76.3,61.0,30.18,NW,317,1.0,1.0,59,0.00,,,0.00,meteohub,2013-07-31 09:57:00,
2013-07-31 04:02:00,75.6,60.6,30.18,NW,308,4.0,4.0,60,0.00,,,0.00,meteohub,2013-07-31 10:02:00,
2013-07-31 04:07:00,75.2,60.8,30.18,NW,308,0.0,4.0,61,0.00,,,0.00,meteohub,2013-07-31 10:07:00,
2013-07-31 04:12:00,75.0,60.6,30.19,NW,308,0.0,4.0,61,0.00,,,0.00,meteohub,2013-07-31 10:12:00,
2013-07-31 04:17:00,75.0,60.6,30.19,NW,308,0.0,4.0,61,0.00,,,0.00,meteohub,2013-07-31 10:17:00,
2013-07-31 04:22:00,75.2,60.8,30.19,NW,308,1.0,3.0,61,0.00,,,0.00,meteohub,2013-07-31 10:22:00,
2013-07-31 04:27:00,75.4,60.1,30.19,WNW,290,2.0,5.0,59,0.00,,,0.00,meteohub,2013-07-31 10:27:00,
2013-07-31 04:32:00,75.0,60.6,30.19,SW,236,4.0,5.0,61,0.00,,,0.00,meteohub,2013-07-31 10:32:00,
2013-07-31 04:37:00,74.7,61.2,30.20,SW,219,1.0,7.0,63,0.00,,,0.00,meteohub,2013-07-31 10:37:00,
2013-07-31 04:42:00,74.5,61.5,30.20,SW,217,4.0,7.0,64,0.00,,,0.00,meteohub,2013-07-31 10:42:00,
2013-07-31 04:47:00,74.3,60.8,30.20,SW,218,5.0,8.0,63,0.00,,,0.00,meteohub,2013-07-31 10:47:00,
2013-07-31 04:52:00,74.3,61.3,30.20,SW,217,3.0,8.0,64,0.00,,,0.00,meteohub,2013-07-31 10:52:00,
2013-07-31 04:57:00,74.3,61.3,30.21,SW,222,4.0,8.0,64,0.00,,,0.00,meteohub,2013-07-31 10:57:00,
2013-07-31 05:02:00,74.5,61.0,30.21,SW,223,2.0,6.0,63,0.00,,,0.00,meteohub,2013-07-31 11:02:00,
2013-07-31 05:07:00,74.7,60.8,30.21,SW,223,3.0,5.0,62,0.00,,,0.00,meteohub,2013-07-31 11:07:00,
2013-07-31 05:12:00,74.7,60.8,30.21,SW,226,2.0,5.0,62,0.00,,,0.00,meteohub,2013-07-31 11:12:00,
2013-07-31 05:17:00,74.8,61.0,30.21,SW,226,0.0,5.0,62,0.00,,,0.00,meteohub,2013-07-31 11:17:00,
2013-07-31 05:22:00,74.8,61.0,30.21,SW,225,1.0,5.0,62,0.00,,,0.00,meteohub,2013-07-31 11:22:00,
2013-07-31 05:27:00,74.3,61.7,30.21,SSW,211,2.0,5.0,65,0.00,,,0.00,meteohub,2013-07-31 11:27:00,
2013-07-31 05:32:00,73.6,61.9,30.22,SSW,211,0.0,3.0,67,0.00,,,0.00,meteohub,2013-07-31 11:32:00,
2013-07-31 05:37:00,73.2,61.5,30.22,SSW,211,1.0,3.0,67,0.00,,,0.00,meteohub,2013-07-31 11:37:00,
2013-07-31 05:42:00,73.0,61.5,30.22,SSW,211,0.0,3.0,67,0.00,,,0.00,meteohub,2013-07-31 11:42:00,
2013-07-31 05:47:00,73.0,61.5,30.22,SSW,211,0.0,2.0,67,0.00,,,0.00,meteohub,2013-07-31 11:47:00,
2013-07-31 05:52:00,73.2,61.5,30.22,SSW,211,0.0,2.0,67,0.00,,,0.00,meteohub,2013-07-31 11:52:00,
2013-07-31 05:57:00,73.6,61.5,30.22,SSW,211,0.0,2.0,66,0.00,,,0.00,meteohub,2013-07-31 11:57:00,
2013-07-31 06:02:00,73.6,61.5,30.22,SSW,211,0.0,2.0,66,0.00,,,0.00,meteohub,2013-07-31 12:02:00,
2013-07-31 06:08:00,73.6,61.5,30.22,SSW,211,0.0,0.0,66,0.00,,,0.00,meteohub,2013-07-31 12:08:00,
2013-07-31 06:14:00,73.4,61.7,30.22,SSW,211,0.0,0.0,67,0.00,,,0.00,meteohub,2013-07-31 12:14:00,
2013-07-31 06:20:00,73.4,61.7,30.22,SSW,211,0.0,0.0,67,0.00,,,0.00,meteohub,2013-07-31 12:20:00,
2013-07-31 06:26:00,73.2,62.1,30.22,SSW,211,0.0,0.0,68,0.00,,,0.00,meteohub,2013-07-31 12:26:00,
2013-07-31 06:32:00,73.2,62.1,30.22,SSW,211,0.0,0.0,68,0.00,,,0.00,meteohub,2013-07-31 12:32:00,
2013-07-31 06:37:00,73.2,62.1,30.23,SSW,211,0.0,0.0,68,0.00,,,0.00,meteohub,2013-07-31 12:37:00,
2013-07-31 06:42:00,73.4,62.6,30.23,SSW,211,0.0,0.0,69,0.00,,,0.00,meteohub,2013-07-31 12:42:00,
2013-07-31 06:47:00,73.4,62.2,30.23,SSW,211,0.0,0.0,68,0.00,,,0.00,meteohub,2013-07-31 12:47:00,
2013-07-31 06:52:00,73.4,62.6,30.23,SSW,211,0.0,0.0,69,0.00,,,0.00,meteohub,2013-07-31 12:52:00,
2013-07-31 06:58:00,73.2,62.4,30.23,SSW,211,0.0,0.0,69,0.00,,,0.00,meteohub,2013-07-31 12:58:00,
2013-07-31 07:04:00,73.6,62.4,30.23,SSW,211,0.0,0.0,68,0.00,,,0.00,meteohub,2013-07-31 13:04:00,
2013-07-31 07:10:00,73.8,62.6,30.23,SSW,211,0.0,0.0,68,0.00,,,0.00,meteohub,2013-07-31 13:10:00,
2013-07-31 07:15:00,73.9,63.1,30.23,SSW,211,0.0,0.0,69,0.00,,,0.00,meteohub,2013-07-31 13:15:00,
2013-07-31 07:21:00,74.1,63.0,30.23,SSW,211,0.0,0.0,68,0.00,,,0.00,meteohub,2013-07-31 13:21:00,
2013-07-31 07:27:00,74.5,62.8,30.23,SSW,211,0.0,0.0,67,0.00,,,0.00,meteohub,2013-07-31 13:27:00,
2013-07-31 07:32:00,74.7,62.6,30.23,SSW,211,0.0,0.0,66,0.00,,,0.00,meteohub,2013-07-31 13:32:00,
2013-07-31 07:37:00,75.0,62.4,30.23,SSW,211,0.0,0.0,65,0.00,,,0.00,meteohub,2013-07-31 13:37:00,
2013-07-31 07:42:00,75.4,62.8,30.23,SSW,211,0.0,0.0,65,0.00,,,0.00,meteohub,2013-07-31 13:42:00,
2013-07-31 07:47:00,75.7,62.8,30.23,SSW,211,0.0,0.0,64,0.00,,,0.00,meteohub,2013-07-31 13:47:00,
2013-07-31 07:52:00,75.9,62.4,30.23,SSW,211,0.0,0.0,63,0.00,,,0.00,meteohub,2013-07-31 13:52:00,
2013-07-31 07:58:00,76.5,62.4,30.23,SSW,211,0.0,0.0,62,0.00,,,0.00,meteohub,2013-07-31 13:58:00,
2013-07-31 08:04:00,77.0,62.6,30.23,SSW,211,0.0,0.0,61,0.00,,,0.00,meteohub,2013-07-31 14:04:00,
2013-07-31 08:10:00,77.5,63.0,30.23,SSW,211,0.0,0.0,61,0.00,,,0.00,meteohub,2013-07-31 14:10:00,
2013-07-31 08:16:00,78.1,63.5,30.23,SSW,211,0.0,0.0,61,0.00,,,0.00,meteohub,2013-07-31 14:16:00,
2013-07-31 08:21:00,78.6,63.5,30.24,SSW,211,0.0,0.0,60,0.00,,,0.00,meteohub,2013-07-31 14:21:00,
2013-07-31 08:27:00,79.3,63.3,30.24,SSW,211,0.0,0.0,58,0.00,,,0.00,meteohub,2013-07-31 14:27:00,
2013-07-31 08:32:00,79.7,62.1,30.24,SSW,211,0.0,0.0,55,0.00,,,0.00,meteohub,2013-07-31 14:32:00,
2013-07-31 08:37:00,80.1,61.9,30.24,SSW,211,0.0,1.0,54,0.00,,,0.00,meteohub,2013-07-31 14:37:00,
2013-07-31 08:42:00,80.2,61.5,30.24,SSW,211,0.0,2.0,53,0.00,,,0.00,meteohub,2013-07-31 14:42:00,
2013-07-31 08:47:00,80.6,61.9,30.24,SSW,211,0.0,2.0,53,0.00,,,0.00,meteohub,2013-07-31 14:47:00,
2013-07-31 08:52:00,81.0,61.7,30.24,SSW,211,0.0,2.0,52,0.00,,,0.00,meteohub,2013-07-31 14:52:00,
2013-07-31 08:57:00,80.8,61.5,30.24,SSW,211,0.0,0.0,52,0.00,,,0.00,meteohub,2013-07-31 14:57:00,
2013-07-31 09:02:00,80.6,61.3,30.24,SSW,211,0.0,0.0,52,0.00,,,0.00,meteohub,2013-07-31 15:02:00,
2013-07-31 09:07:00,81.5,61.7,30.24,SSW,211,0.0,0.0,51,0.00,,,0.00,meteohub,2013-07-31 15:07:00,
2013-07-31 09:12:00,82.0,62.1,30.24,SSW,211,0.0,1.0,51,0.00,,,0.00,meteohub,2013-07-31 15:12:00,
2013-07-31 09:17:00,82.4,61.9,30.24,SSW,209,0.0,2.0,50,0.00,,,0.00,meteohub,2013-07-31 15:17:00,
2013-07-31 09:22:00,82.9,61.9,30.24,SSW,209,0.0,2.0,49,0.00,,,0.00,meteohub,2013-07-31 15:22:00,
2013-07-31 09:27:00,83.1,61.3,30.24,SSW,210,2.0,3.0,48,0.00,,,0.00,meteohub,2013-07-31 15:27:00,
2013-07-31 09:32:00,83.1,61.3,30.23,SW,225,0.0,4.0,48,0.00,,,0.00,meteohub,2013-07-31 15:32:00,
2013-07-31 09:37:00,84.0,61.7,30.23,NW,318,1.0,4.0,47,0.00,,,0.00,meteohub,2013-07-31 15:37:00,
2013-07-31 09:42:00,85.3,61.5,30.23,NW,319,2.0,5.0,45,0.00,,,0.00,meteohub,2013-07-31 15:42:00,
2013-07-31 09:47:00,85.5,61.7,30.23,North,350,1.0,5.0,45,0.00,,,0.00,meteohub,2013-07-31 15:47:00,
2013-07-31 09:52:00,85.8,62.1,30.23,North,350,1.0,5.0,45,0.00,,,0.00,meteohub,2013-07-31 15:52:00,
2013-07-31 09:57:00,86.2,61.0,30.23,North,350,1.0,4.0,43,0.00,,,0.00,meteohub,2013-07-31 15:57:00,
2013-07-31 10:02:00,86.4,59.9,30.23,NNE,22,1.0,4.0,41,0.00,,,0.00,meteohub,2013-07-31 16:02:00,
2013-07-31 10:08:00,86.2,61.0,30.23,NNE,22,2.0,6.0,43,0.00,,,0.00,meteohub,2013-07-31 16:08:00,
2013-07-31 10:14:00,86.7,60.8,30.23,NNE,22,2.0,6.0,42,0.00,,,0.00,meteohub,2013-07-31 16:14:00,
2013-07-31 10:20:00,86.9,61.7,30.23,NNE,22,3.0,4.0,43,0.00,,,0.00,meteohub,2013-07-31 16:20:00,
2013-07-31 10:25:00,87.4,61.5,30.23,NE,38,1.0,5.0,42,0.00,,,0.00,meteohub,2013-07-31 16:25:00,
2013-07-31 10:31:00,87.1,62.6,30.23,NE,38,2.0,5.0,44,0.00,,,0.00,meteohub,2013-07-31 16:31:00,
2013-07-31 10:37:00,87.1,61.9,30.23,NE,37,1.0,5.0,43,0.00,,,0.00,meteohub,2013-07-31 16:37:00,
2013-07-31 10:42:00,87.4,62.2,30.23,NE,37,2.0,5.0,43,0.00,,,0.00,meteohub,2013-07-31 16:42:00,
2013-07-31 10:47:00,88.0,61.3,30.23,NE,37,0.0,4.0,41,0.00,,,0.00,meteohub,2013-07-31 16:47:00,
2013-07-31 10:53:00,88.2,60.8,30.23,NE,37,0.0,4.0,40,0.00,,,0.00,meteohub,2013-07-31 16:53:00,
2013-07-31 10:59:00,89.2,61.7,30.23,NE,37,2.0,4.0,40,0.00,,,0.00,meteohub,2013-07-31 16:59:00,
2013-07-31 11:04:00,90.3,60.4,30.23,NNE,32,1.0,4.0,37,0.00,,,0.00,meteohub,2013-07-31 17:04:00,
2013-07-31 11:10:00,90.7,60.8,30.23,NNE,32,4.0,4.0,37,0.00,,,0.00,meteohub,2013-07-31 17:10:00,
2013-07-31 11:16:00,91.0,58.8,30.23,NNE,30,2.0,5.0,34,0.00,,,0.00,meteohub,2013-07-31 17:16:00,
2013-07-31 11:22:00,91.6,59.2,30.23,NNE,30,4.0,5.0,34,0.00,,,0.00,meteohub,2013-07-31 17:22:00,
2013-07-31 11:27:00,91.6,60.1,30.22,ESE,109,0.0,5.0,35,0.00,,,0.00,meteohub,2013-07-31 17:27:00,
2013-07-31 11:32:00,91.6,59.2,30.22,ENE,78,3.0,6.0,34,0.00,,,0.00,meteohub,2013-07-31 17:32:00,
2013-07-31 11:37:00,91.9,58.6,30.22,NE,37,3.0,6.0,33,0.00,,,0.00,meteohub,2013-07-31 17:37:00,
2013-07-31 11:42:00,91.6,59.2,30.22,NNE,30,3.0,6.0,34,0.00,,,0.00,meteohub,2013-07-31 17:42:00,
2013-07-31 11:48:00,91.2,58.1,30.22,NNE,32,1.0,6.0,33,0.00,,,0.00,meteohub,2013-07-31 17:48:00,
2013-07-31 11:54:00,91.6,57.6,30.22,NE,42,2.0,5.0,32,0.00,,,0.00,meteohub,2013-07-31 17:54:00,
2013-07-31 12:00:00,91.8,57.7,30.22,NE,42,0.0,5.0,32,0.00,,,0.00,meteohub,2013-07-31 18:00:00,
2013-07-31 12:05:00,92.3,58.1,30.22,NE,42,4.0,5.0,32,0.00,,,0.00,meteohub,2013-07-31 18:05:00,
2013-07-31 12:12:00,92.8,58.6,30.22,NE,44,3.0,5.0,32,0.00,,,0.00,meteohub,2013-07-31 18:12:00,
2013-07-31 12:17:00,93.7,58.5,30.21,NE,44,2.0,7.0,31,0.00,,,0.00,meteohub,2013-07-31 18:17:00,
2013-07-31 12:22:00,93.9,57.7,30.21,ENE,57,0.0,7.0,30,0.00,,,0.00,meteohub,2013-07-31 18:22:00,
2013-07-31 12:27:00,93.9,57.7,30.21,West,281,4.0,8.0,30,0.00,,,0.00,meteohub,2013-07-31 18:27:00,
2013-07-31 12:33:00,93.9,57.7,30.21,NW,310,4.0,8.0,30,0.00,,,0.00,meteohub,2013-07-31 18:33:00,
2013-07-31 12:35:00,93.7,57.6,30.21,NW,321,0.0,8.0,30,0.00,,,0.00,meteohub,2013-07-31 18:35:00,
2013-07-31 12:42:00,94.8,58.5,30.21,NNW,346,3.0,8.0,30,0.00,,,0.00,meteohub,2013-07-31 18:42:00,
2013-07-31 12:47:00,95.4,58.1,30.21,SW,234,4.0,6.0,29,0.00,,,0.00,meteohub,2013-07-31 18:47:00,
2013-07-31 12:52:00,96.3,57.9,30.20,WNW,284,5.0,6.0,28,0.00,,,0.00,meteohub,2013-07-31 18:52:00,
2013-07-31 12:58:00,96.1,57.7,30.20,NNW,329,4.0,7.0,28,0.00,,,0.00,meteohub,2013-07-31 18:58:00,
2013-07-31 13:04:00,95.7,58.5,30.20,NW,323,5.0,8.0,29,0.00,,,0.00,meteohub,2013-07-31 19:04:00,
2013-07-31 13:09:00,96.1,59.5,30.19,NNW,333,3.0,8.0,30,0.00,,,0.00,meteohub,2013-07-31 19:09:00,
2013-07-31 13:15:00,97.2,57.6,30.19,North,5,7.0,7.0,27,0.00,,,0.00,meteohub,2013-07-31 19:15:00,
2013-07-31 13:21:00,97.9,58.3,30.19,NE,53,4.0,8.0,27,0.00,,,0.00,meteohub,2013-07-31 19:21:00,
2013-07-31 13:26:00,98.1,58.5,30.19,NE,39,5.0,10.0,27,0.00,,,0.00,meteohub,2013-07-31 19:26:00,
2013-07-31 13:32:00,98.1,57.4,30.19,NNE,13,3.0,10.0,26,0.00,,,0.00,meteohub,2013-07-31 19:32:00,
2013-07-31 13:38:00,97.5,57.9,30.18,NE,35,4.0,9.0,27,0.00,,,0.00,meteohub,2013-07-31 19:38:00,
2013-07-31 13:43:00,97.3,55.6,30.18,ENE,68,7.0,9.0,25,0.00,,,0.00,meteohub,2013-07-31 19:43:00,
2013-07-31 13:49:00,98.6,55.6,30.18,East,98,8.0,12.0,24,0.00,,,0.00,meteohub,2013-07-31 19:49:00,
2013-07-31 13:55:00,99.0,55.9,30.17,ESE,118,10.0,14.0,24,0.00,,,0.00,meteohub,2013-07-31 19:55:00,
2013-07-31 14:01:00,99.7,55.2,30.17,ESE,120,9.0,13.0,23,0.00,,,0.00,meteohub,2013-07-31 20:01:00,
2013-07-31 14:07:00,98.8,55.8,30.17,ESE,113,5.0,13.0,24,0.00,,,0.00,meteohub,2013-07-31 20:07:00,
2013-07-31 14:12:00,99.1,54.9,30.17,ESE,118,9.0,14.0,23,0.00,,,0.00,meteohub,2013-07-31 20:12:00,
2013-07-31 14:17:00,98.6,54.3,30.17,SSE,149,5.0,15.0,23,0.00,,,0.00,meteohub,2013-07-31 20:17:00,
2013-07-31 14:22:00,99.0,54.7,30.16,East,83,5.0,15.0,23,0.00,,,0.00,meteohub,2013-07-31 20:22:00,
2013-07-31 14:28:00,100.0,55.6,30.16,ESE,105,8.0,15.0,23,0.00,,,0.00,meteohub,2013-07-31 20:28:00,
2013-07-31 14:34:00,99.0,54.7,30.15,ESE,102,8.0,12.0,23,0.00,,,0.00,meteohub,2013-07-31 20:34:00,
2013-07-31 14:40:00,99.3,56.1,30.15,ESE,113,12.0,12.0,24,0.00,,,0.00,meteohub,2013-07-31 20:40:00,
2013-07-31 14:46:00,99.3,56.1,30.15,East,97,9.0,14.0,24,0.00,,,0.00,meteohub,2013-07-31 20:46:00,
2013-07-31 14:52:00,99.3,56.1,30.15,ESE,121,11.0,14.0,24,0.00,,,0.00,meteohub,2013-07-31 20:52:00,
2013-07-31 14:57:00,99.3,56.1,30.15,East,94,7.0,14.0,24,0.00,,,0.00,meteohub,2013-07-31 20:57:00,
2013-07-31 15:02:00,99.1,54.9,30.15,ENE,70,3.0,14.0,23,0.00,,,0.00,meteohub,2013-07-31 21:02:00,
2013-07-31 15:08:00,99.1,54.9,30.14,NE,51,4.0,13.0,23,0.00,,,0.00,meteohub,2013-07-31 21:08:00,
2013-07-31 15:14:00,99.1,55.9,30.14,SE,131,6.0,13.0,24,0.00,,,0.00,meteohub,2013-07-31 21:14:00,
2013-07-31 15:20:00,99.3,55.0,30.14,SE,136,8.0,13.0,23,0.00,,,0.00,meteohub,2013-07-31 21:20:00,
2013-07-31 15:26:00,98.6,54.3,30.13,SE,134,5.0,14.0,23,0.00,,,0.00,meteohub,2013-07-31 21:26:00,
2013-07-31 15:32:00,99.0,54.7,30.13,SSE,157,4.0,14.0,23,0.00,,,0.00,meteohub,2013-07-31 21:32:00,
2013-07-31 15:37:00,98.8,54.5,30.13,ESE,115,11.0,13.0,23,0.00,,,0.00,meteohub,2013-07-31 21:37:00,
2013-07-31 15:43:00,99.1,53.6,30.13,East,91,7.0,12.0,22,0.00,,,0.00,meteohub,2013-07-31 21:43:00,
2013-07-31 15:48:00,99.9,51.6,30.12,ESE,109,7.0,16.0,20,0.00,,,0.00,meteohub,2013-07-31 21:48:00,
2013-07-31 15:55:00,99.9,54.1,30.12,SE,138,8.0,18.0,22,0.00,,,0.00,meteohub,2013-07-31 21:55:00,
2013-07-31 16:00:00,99.9,51.6,30.12,ESE,110,9.0,13.0,20,0.00,,,0.00,meteohub,2013-07-31 22:00:00,
2013-07-31 16:06:00,99.3,52.5,30.12,SE,132,9.0,13.0,21,0.00,,,0.00,meteohub,2013-07-31 22:06:00,
2013-07-31 16:12:00,99.3,49.8,30.11,SSE,156,7.0,14.0,19,0.00,,,0.00,meteohub,2013-07-31 22:12:00,
2013-07-31 16:17:00,99.9,50.2,30.11,SE,138,6.0,14.0,19,0.00,,,0.00,meteohub,2013-07-31 22:17:00,
2013-07-31 16:23:00,99.7,48.6,30.11,SE,134,6.0,15.0,18,0.00,,,0.00,meteohub,2013-07-31 22:23:00,
2013-07-31 16:29:00,99.7,50.0,30.11,East,86,9.0,15.0,19,0.00,,,0.00,meteohub,2013-07-31 22:29:00,
2013-07-31 16:35:00,99.9,51.6,30.11,ENE,76,9.0,15.0,20,0.00,,,0.00,meteohub,2013-07-31 22:35:00,
2013-07-31 16:40:00,99.1,52.3,30.11,East,86,3.0,15.0,21,0.00,,,0.00,meteohub,2013-07-31 22:40:00,
2013-07-31 16:46:00,99.3,52.5,30.11,East,90,7.0,15.0,21,0.00,,,0.00,meteohub,2013-07-31 22:46:00,
2013-07-31 16:51:00,99.9,51.6,30.10,ESE,113,10.0,15.0,20,0.00,,,0.00,meteohub,2013-07-31 22:51:00,
2013-07-31 16:57:00,99.7,48.6,30.10,SSE,161,8.0,13.0,18,0.00,,,0.00,meteohub,2013-07-31 22:57:00,
2013-07-31 17:02:00,99.9,48.7,30.10,East,98,9.0,13.0,18,0.00,,,0.00,meteohub,2013-07-31 23:02:00,
2013-07-31 17:07:00,99.9,48.7,30.10,SSE,147,5.0,13.0,18,0.00,,,0.00,meteohub,2013-07-31 23:07:00,
2013-07-31 17:12:00,100.0,50.4,30.10,ENE,67,8.0,13.0,19,0.00,,,0.00,meteohub,2013-07-31 23:12:00,
2013-07-31 17:17:00,100.0,48.9,30.10,South,178,9.0,13.0,18,0.00,,,0.00,meteohub,2013-07-31 23:17:00,
2013-07-31 17:22:00,100.4,47.7,30.10,SSE,148,7.0,13.0,17,0.00,,,0.00,meteohub,2013-07-31 23:22:00,
2013-07-31 17:27:00,100.4,46.0,30.10,SE,128,10.0,13.0,16,0.00,,,0.00,meteohub,2013-07-31 23:27:00,
2013-07-31 17:32:00,99.1,46.8,30.10,SE,138,6.0,16.0,17,0.00,,,0.00,meteohub,2013-07-31 23:32:00,
2013-07-31 17:38:00,99.1,45.1,30.10,SE,125,4.0,16.0,16,0.00,,,0.00,meteohub,2013-07-31 23:38:00,
2013-07-31 17:44:00,99.0,46.6,30.09,SE,125,9.0,14.0,17,0.00,,,0.00,meteohub,2013-07-31 23:44:00,
2013-07-31 17:50:00,98.4,47.7,30.09,ESE,111,5.0,14.0,18,0.00,,,0.00,meteohub,2013-07-31 23:50:00,
2013-07-31 17:56:00,98.2,47.5,30.09,SSE,157,12.0,14.0,18,0.00,,,0.00,meteohub,2013-07-31 23:56:00,
2013-07-31 18:02:00,97.9,53.8,30.09,SE,137,8.0,17.0,23,0.00,,,0.00,meteohub,2013-08-01 00:02:00,
2013-07-31 18:07:00,96.8,54.1,30.09,SE,130,9.0,18.0,24,0.00,,,0.00,meteohub,2013-08-01 00:07:00,
2013-07-31 18:12:00,96.3,52.5,30.09,East,88,11.0,18.0,23,0.00,,,0.00,meteohub,2013-08-01 00:12:00,
2013-07-31 18:17:00,95.7,52.0,30.09,ESE,107,5.0,18.0,23,0.00,,,0.00,meteohub,2013-08-01 00:17:00,
2013-07-31 18:22:00,95.7,48.2,30.09,SE,125,10.0,17.0,20,0.00,,,0.00,meteohub,2013-08-01 00:22:00,
2013-07-31 18:27:00,95.7,48.2,30.09,SE,128,5.0,16.0,20,0.00,,,0.00,meteohub,2013-08-01 00:27:00,
2013-07-31 18:32:00,95.9,45.5,30.09,SE,126,7.0,15.0,18,0.00,,,0.00,meteohub,2013-08-01 00:32:00,
2013-07-31 18:37:00,95.7,45.5,30.09,ESE,123,9.0,15.0,18,0.00,,,0.00,meteohub,2013-08-01 00:37:00,
2013-07-31 18:42:00,95.4,46.6,30.09,ESE,103,4.0,15.0,19,0.00,,,0.00,meteohub,2013-08-01 00:42:00,
2013-07-31 18:48:00,95.4,46.6,30.10,East,98,6.0,15.0,19,0.00,,,0.00,meteohub,2013-08-01 00:48:00,
2013-07-31 18:54:00,95.4,46.6,30.10,East,101,3.0,11.0,19,0.00,,,0.00,meteohub,2013-08-01 00:54:00,
2013-07-31 18:59:00,95.5,46.8,30.10,East,92,8.0,10.0,19,0.00,,,0.00,meteohub,2013-08-01 00:59:00,
2013-07-31 19:05:00,95.4,46.6,30.10,ESE,104,4.0,10.0,19,0.00,,,0.00,meteohub,2013-08-01 01:05:00,
2013-07-31 19:11:00,95.4,46.6,30.10,East,98,3.0,10.0,19,0.00,,,0.00,meteohub,2013-08-01 01:11:00,
2013-07-31 19:17:00,95.2,47.8,30.11,ESE,106,2.0,7.0,20,0.00,,,0.00,meteohub,2013-08-01 01:17:00,
2013-07-31 19:22:00,94.8,48.7,30.11,ESE,116,3.0,7.0,21,0.00,,,0.00,meteohub,2013-08-01 01:22:00,
2013-07-31 19:27:00,94.6,49.8,30.11,SE,135,4.0,6.0,22,0.00,,,0.00,meteohub,2013-08-01 01:27:00,
2013-07-31 19:32:00,94.5,52.2,30.11,SE,140,10.0,10.0,24,0.00,,,0.00,meteohub,2013-08-01 01:32:00,
2013-07-31 19:37:00,93.9,54.9,30.11,SE,132,9.0,16.0,27,0.00,,,0.00,meteohub,2013-08-01 01:37:00,
2013-07-31 19:42:00,93.4,54.3,30.11,SE,136,5.0,16.0,27,0.00,,,0.00,meteohub,2013-08-01 01:42:00,
2013-07-31 19:47:00,93.0,55.0,30.11,SE,127,8.0,16.0,28,0.00,,,0.00,meteohub,2013-08-01 01:47:00,
2013-07-31 19:52:00,92.7,54.9,30.11,SE,130,5.0,14.0,28,0.00,,,0.00,meteohub,2013-08-01 01:52:00,
2013-07-31 19:57:00,92.3,55.4,30.11,ESE,121,8.0,13.0,29,0.00,,,0.00,meteohub,2013-08-01 01:57:00,
2013-07-31 20:02:00,91.9,55.2,30.11,SE,126,4.0,13.0,29,0.00,,,0.00,meteohub,2013-08-01 02:02:00,
2013-07-31 20:07:00,91.6,55.8,30.11,ESE,123,2.0,11.0,30,0.00,,,0.00,meteohub,2013-08-01 02:07:00,
2013-07-31 20:12:00,91.4,56.5,30.11,ESE,121,2.0,10.0,31,0.00,,,0.00,meteohub,2013-08-01 02:12:00,
2013-07-31 20:17:00,91.2,56.3,30.12,ESE,123,1.0,7.0,31,0.00,,,0.00,meteohub,2013-08-01 02:17:00,
2013-07-31 20:22:00,91.0,56.1,30.12,ESE,123,3.0,5.0,31,0.00,,,0.00,meteohub,2013-08-01 02:22:00,
2013-07-31 20:27:00,91.0,56.1,30.12,SE,132,1.0,4.0,31,0.00,,,0.00,meteohub,2013-08-01 02:27:00,
2013-07-31 20:33:00,91.0,56.1,30.12,SSW,205,4.0,5.0,31,0.00,,,0.00,meteohub,2013-08-01 02:33:00,
2013-07-31 20:39:00,90.9,56.1,30.12,SSW,203,1.0,6.0,31,0.00,,,0.00,meteohub,2013-08-01 02:39:00,
2013-07-31 20:45:00,90.9,56.1,30.12,SSW,203,0.0,6.0,31,0.00,,,0.00,meteohub,2013-08-01 02:45:00,
2013-07-31 20:51:00,90.7,55.9,30.12,SSW,194,1.0,6.0,31,0.00,,,0.00,meteohub,2013-08-01 02:51:00,
2013-07-31 20:56:00,90.7,55.9,30.12,SSW,194,0.0,4.0,31,0.00,,,0.00,meteohub,2013-08-01 02:56:00,
2013-07-31 21:02:00,90.5,55.8,30.12,SSW,194,0.0,4.0,31,0.00,,,0.00,meteohub,2013-08-01 03:02:00,
2013-07-31 21:07:00,90.3,55.6,30.13,SSW,194,1.0,3.0,31,0.00,,,0.00,meteohub,2013-08-01 03:07:00,
2013-07-31 21:12:00,90.3,55.6,30.13,SSW,194,0.0,3.0,31,0.00,,,0.00,meteohub,2013-08-01 03:12:00,
2013-07-31 21:17:00,90.1,55.4,30.13,SSW,194,1.0,3.0,31,0.00,,,0.00,meteohub,2013-08-01 03:17:00,
2013-07-31 21:22:00,90.1,56.3,30.13,SSW,194,0.0,3.0,32,0.00,,,0.00,meteohub,2013-08-01 03:22:00,
2013-07-31 21:27:00,90.0,56.1,30.13,SSW,194,1.0,2.0,32,0.00,,,0.00,meteohub,2013-08-01 03:27:00,
2013-07-31 21:32:00,89.4,56.5,30.14,SSW,194,3.0,3.0,33,0.00,,,0.00,meteohub,2013-08-01 03:32:00,
2013-07-31 21:37:00,88.9,56.8,30.14,WSW,238,5.0,5.0,34,0.00,,,0.00,meteohub,2013-08-01 03:37:00,
2013-07-31 21:42:00,88.3,55.6,30.14,WSW,247,4.0,6.0,33,0.00,,,0.00,meteohub,2013-08-01 03:42:00,
2013-07-31 21:47:00,88.3,56.5,30.14,WSW,248,3.0,6.0,34,0.00,,,0.00,meteohub,2013-08-01 03:47:00,
2013-07-31 21:52:00,88.3,56.5,30.14,WSW,248,1.0,6.0,34,0.00,,,0.00,meteohub,2013-08-01 03:52:00,
2013-07-31 21:57:00,88.2,57.0,30.14,West,271,1.0,5.0,35,0.00,,,0.00,meteohub,2013-08-01 03:57:00,
2013-07-31 22:01:00,88.0,56.8,30.14,West,275,2.0,5.0,35,0.00,,,0.00,meteohub,2013-08-01 04:01:00,
2013-07-31 22:02:00,88.0,56.8,30.14,West,277,3.0,5.0,35,0.00,,,0.00,meteohub,2013-08-01 04:02:00,
2013-07-31 22:08:00,87.6,57.4,30.15,West,279,5.0,6.0,36,0.00,,,0.00,meteohub,2013-08-01 04:08:00,
2013-07-31 22:10:00,87.6,56.7,30.15,WNW,290,2.0,6.0,35,0.00,,,0.00,meteohub,2013-08-01 04:10:00,
2013-07-31 22:15:00,87.6,56.7,30.15,NW,305,1.0,6.0,35,0.00,,,0.00,meteohub,2013-08-01 04:15:00,
2013-07-31 22:21:00,87.8,56.7,30.16,NW,305,0.0,6.0,35,0.00,,,0.00,meteohub,2013-08-01 04:21:00,
2013-07-31 22:27:00,87.8,56.7,30.17,NW,305,0.0,6.0,35,0.00,,,0.00,meteohub,2013-08-01 04:27:00,
2013-07-31 22:32:00,87.4,57.2,30.17,NW,305,2.0,5.0,36,0.00,,,0.00,meteohub,2013-08-01 04:32:00,
2013-07-31 22:37:00,87.3,57.7,30.17,SSE,154,6.0,6.0,37,0.00,,,0.00,meteohub,2013-08-01 04:37:00,
2013-07-31 22:43:00,86.7,56.7,30.17,SSW,204,2.0,7.0,36,0.00,,,0.00,meteohub,2013-08-01 04:43:00,
2013-07-31 22:49:00,87.3,56.3,30.17,West,274,1.0,8.0,35,0.00,,,0.00,meteohub,2013-08-01 04:49:00,
2013-07-31 22:55:00,87.4,56.5,30.17,SSW,201,1.0,8.0,35,0.00,,,0.00,meteohub,2013-08-01 04:55:00,
2013-07-31 23:01:00,87.1,56.8,30.17,WSW,249,2.0,6.0,36,0.00,,,0.00,meteohub,2013-08-01 05:01:00,
2013-07-31 23:07:00,86.7,56.7,30.17,WSW,249,1.0,6.0,36,0.00,,,0.00,meteohub,2013-08-01 05:07:00,
2013-07-31 23:12:00,86.7,57.4,30.17,SW,225,2.0,5.0,37,0.00,,,0.00,meteohub,2013-08-01 05:12:00,
2013-07-31 23:17:00,87.1,57.6,30.17,SSE,165,3.0,6.0,37,0.00,,,0.00,meteohub,2013-08-01 05:17:00,
2013-07-31 23:23:00,87.1,57.6,30.17,South,178,2.0,6.0,37,0.00,,,0.00,meteohub,2013-08-01 05:23:00,
2013-07-31 23:29:00,87.1,57.6,30.17,SSE,160,2.0,6.0,37,0.00,,,0.00,meteohub,2013-08-01 05:29:00,
2013-07-31 23:35:00,87.3,57.7,30.17,SSE,153,0.0,6.0,37,0.00,,,0.00,meteohub,2013-08-01 05:35:00,
2013-07-31 23:41:00,86.9,58.3,30.17,SSE,153,1.0,5.0,38,0.00,,,0.00,meteohub,2013-08-01 05:41:00,
2013-07-31 23:47:00,86.5,57.9,30.17,SSE,153,0.0,5.0,38,0.00,,,0.00,meteohub,2013-08-01 05:47:00,
2013-07-31 23:52:00,85.8,58.6,30.18,WNW,282,6.0,12.0,40,0.00,,,0.00,meteohub,2013-08-01 05:52:00,
2013-07-31 23:57:00,84.7,59.2,30.18,West,266,2.0,12.0,42,0.00,,,0.00,meteohub,2013-08-01 05:57:00,